This is the latest recevied weather packets stored in our database for station/object KI4MRC. If no packets are shown the sender has not sent any weather packets the latest 10 day(s).
| Time | Temp. | Humidity | Pressure | Rain* | Wind** | Luminosity | Snow |
|---|---|---|---|---|---|---|---|
| 1778073187 | 27.22° C | 78% | 1016.7 hPa | 0 mm | - | 256 W/m² | - |
| 1778072884 | 27.22° C | 79% | 1016.7 hPa | 0 mm | - | 263 W/m² | - |
| 1778072580 | 26.67° C | 79% | 1016.5 hPa | 0 mm | - | 335 W/m² | - |
| 1778072279 | 26.67° C | 82% | 1016.6 hPa | 0 mm | - | 291 W/m² | - |
| 1778071976 | 26.11° C | 85% | 1016.6 hPa | 0 mm | - | 260 W/m² | - |
| 1778071674 | 25.56° C | 86% | 1016.6 hPa | 0 mm | - | 114 W/m² | - |
| 1778071372 | 25.56° C | 89% | 1016.5 hPa | 0 mm | - | 121 W/m² | - |
| 1778071069 | 25° C | 91% | 1016.5 hPa | 0 mm | - | 115 W/m² | - |
| 1778070768 | 24.44° C | 94% | 1016.5 hPa | 0 mm | - | 87 W/m² | - |
| 1778070464 | 24.44° C | 95% | 1016.3 hPa | 0 mm | - | 84 W/m² | - |
| 1778070161 | 23.89° C | 97% | 1016.5 hPa | 0 mm | - | 83 W/m² | - |
| 1778069859 | 23.89° C | 98% | 1016.5 hPa | 0 mm | - | 76 W/m² | - |
| 1778069556 | 23.89° C | 99% | 1016.4 hPa | 0 mm | - | 71 W/m² | - |
| 1778069253 | 23.33° C | 99% | 1016.5 hPa | 0 mm | - | 80 W/m² | - |
| 1778068951 | 23.33° C | 99% | 1016.5 hPa | 0 mm | - | 83 W/m² | - |
| 1778068648 | 22.78° C | 99% | 1016.5 hPa | 0 mm | - | 84 W/m² | - |
| 1778068347 | 22.78° C | 99% | 1016.4 hPa | 0 mm | - | 81 W/m² | - |
| 1778068044 | 22.78° C | 99% | 1016.3 hPa | 0 mm | - | 74 W/m² | - |
| 1778067741 | 22.22° C | 99% | 1016.4 hPa | 0 mm | - | 67 W/m² | - |
| 1778067440 | 22.22° C | 99% | 1016.4 hPa | 0 mm | - | 61 W/m² | - |
| 1778067137 | 21.67° C | 99% | 1016.3 hPa | 0 mm | - | 54 W/m² | - |
| 1778066833 | 21.67° C | 99% | 1016 hPa | 0 mm | - | 51 W/m² | - |
| 1778066531 | 21.67° C | 99% | 1016.1 hPa | 0 mm | - | 50 W/m² | - |
| 1778066228 | 21.67° C | 99% | 1016 hPa | 0 mm | - | 48 W/m² | - |
| 1778065926 | 21.67° C | 99% | 1015.8 hPa | 0 mm | - | 41 W/m² | - |
* Rain latest hour (hover to see other rain measurements)
** Current wind speed in m/s (hover to see current wind gust speed)